TimeEST,TemperatureF,Dew PointF,Humidity,Sea Level PressureIn,VisibilityMPH,Wind Direction,Wind SpeedMPH,Gust SpeedMPH,PrecipitationIn,Events,Conditions,WindDirDegrees,DateUTC
12:15 AM,28.4,12.2,51,30.12,10.0,NW,6.9,17.3,N/A,,Clear,310,2013-02-17 05:15:00
12:35 AM,28.4,10.4,47,30.12,10.0,NW,9.2,-,N/A,,Clear,320,2013-02-17 05:35:00
12:55 AM,28.4,8.6,43,30.12,10.0,NW,5.8,16.1,N/A,,Clear,310,2013-02-17 05:55:00
1:15 AM,28.4,8.6,43,30.13,10.0,WNW,5.8,-,N/A,,Clear,300,2013-02-17 06:15:00
1:35 AM,28.4,8.6,43,30.14,10.0,NW,6.9,-,N/A,,Clear,310,2013-02-17 06:35:00
1:55 AM,28.4,8.6,43,30.15,10.0,NW,3.5,-,N/A,,Clear,310,2013-02-17 06:55:00
2:15 AM,26.6,8.6,47,30.15,10.0,WNW,4.6,-,N/A,,Clear,300,2013-02-17 07:15:00
2:35 AM,26.6,5.0,40,30.14,10.0,WNW,4.6,-,N/A,,Clear,300,2013-02-17 07:35:00
2:55 AM,24.8,8.6,50,30.14,10.0,WNW,4.6,-,N/A,,Clear,300,2013-02-17 07:55:00
3:15 AM,24.8,8.6,50,30.15,10.0,WNW,3.5,-,N/A,,Clear,290,2013-02-17 08:15:00
3:35 AM,26.6,6.8,43,30.15,10.0,WNW,4.6,-,N/A,,Clear,290,2013-02-17 08:35:00
3:55 AM,24.8,8.6,50,30.15,10.0,WNW,4.6,-,N/A,,Clear,300,2013-02-17 08:55:00
4:15 AM,24.8,8.6,50,30.16,10.0,WNW,5.8,-,N/A,,Clear,290,2013-02-17 09:15:00
4:35 AM,24.8,6.8,46,30.16,10.0,NW,4.6,-,N/A,,Clear,310,2013-02-17 09:35:00
4:55 AM,23.0,8.6,54,30.16,10.0,NW,5.8,-,N/A,,Clear,310,2013-02-17 09:55:00
5:15 AM,23.0,8.6,54,30.16,10.0,NW,4.6,-,N/A,,Clear,310,2013-02-17 10:15:00
5:35 AM,24.8,6.8,46,30.16,10.0,WNW,4.6,-,N/A,,Clear,300,2013-02-17 10:35:00
5:55 AM,23.0,6.8,50,30.17,10.0,WNW,4.6,-,N/A,,Clear,300,2013-02-17 10:55:00
6:15 AM,23.0,8.6,54,30.18,10.0,WNW,6.9,-,N/A,,Clear,300,2013-02-17 11:15:00
6:35 AM,23.0,6.8,50,30.18,10.0,NW,4.6,-,N/A,,Clear,310,2013-02-17 11:35:00
6:55 AM,23.0,8.6,54,30.18,10.0,NW,5.8,-,N/A,,Clear,310,2013-02-17 11:55:00
7:15 AM,21.2,8.6,58,30.19,10.0,WNW,5.8,-,N/A,,Clear,300,2013-02-17 12:15:00
7:35 AM,23.0,6.8,50,30.20,10.0,WNW,6.9,-,N/A,,Clear,300,2013-02-17 12:35:00
7:55 AM,23.0,8.6,54,30.20,10.0,NW,6.9,-,N/A,,Clear,310,2013-02-17 12:55:00
8:15 AM,24.8,5.0,43,30.21,10.0,NW,6.9,-,N/A,,Clear,310,2013-02-17 13:15:00
8:35 AM,26.6,5.0,40,30.22,10.0,NW,8.1,-,N/A,,Clear,310,2013-02-17 13:35:00
8:55 AM,28.4,5.0,37,30.23,10.0,WNW,5.8,-,N/A,,Clear,290,2013-02-17 13:55:00
9:15 AM,30.2,3.2,32,30.24,10.0,WNW,6.9,-,N/A,,Clear,300,2013-02-17 14:15:00
9:35 AM,30.2,3.2,32,30.25,10.0,WNW,5.8,-,N/A,,Clear,300,2013-02-17 14:35:00
9:55 AM,32.0,1.4,27,30.25,10.0,WNW,6.9,-,N/A,,Clear,290,2013-02-17 14:55:00
10:15 AM,32.0,-0.4,25,30.25,10.0,WNW,10.4,-,N/A,,Clear,300,2013-02-17 15:15:00
10:35 AM,33.8,-0.4,23,30.26,10.0,WNW,5.8,-,N/A,,Clear,290,2013-02-17 15:35:00
10:55 AM,35.6,-5.8,17,30.26,10.0,WNW,4.6,-,N/A,,Clear,300,2013-02-17 15:55:00
11:15 AM,37.4,-4.0,17,30.26,10.0,NW,9.2,18.4,N/A,,Clear,310,2013-02-17 16:15:00
11:35 AM,37.4,-5.8,16,30.26,10.0,WNW,6.9,17.3,N/A,,Clear,300,2013-02-17 16:35:00
11:55 AM,37.4,-7.6,15,30.26,10.0,NW,9.2,20.7,N/A,,Clear,320,2013-02-17 16:55:00
12:15 PM,39.2,-7.6,14,30.26,10.0,WNW,10.4,21.9,N/A,,Clear,300,2013-02-17 17:15:00
12:35 PM,41.0,-7.6,13,30.25,10.0,NW,5.8,-,N/A,,Clear,320,2013-02-17 17:35:00
12:55 PM,41.0,-11.2,11,30.23,10.0,NW,8.1,-,N/A,,Clear,320,2013-02-17 17:55:00
1:15 PM,41.0,-14.8,9,30.23,10.0,WNW,12.7,21.9,N/A,,Clear,300,2013-02-17 18:15:00
1:55 PM,42.8,-16.6,8,30.22,10.0,WNW,8.1,17.3,N/A,,Clear,300,2013-02-17 18:55:00
2:15 PM,42.8,-16.6,8,30.21,10.0,NW,9.2,17.3,N/A,,Clear,310,2013-02-17 19:15:00
2:35 PM,44.6,-18.4,7,30.20,10.0,WNW,4.6,17.3,N/A,,Clear,290,2013-02-17 19:35:00
2:55 PM,42.8,-16.6,8,30.19,10.0,WNW,11.5,19.6,N/A,,Clear,300,2013-02-17 19:55:00
3:15 PM,42.8,-16.6,8,30.20,10.0,WNW,3.5,19.6,N/A,,Clear,300,2013-02-17 20:15:00
3:35 PM,44.6,-16.6,7,30.20,10.0,WNW,12.7,20.7,N/A,,Clear,300,2013-02-17 20:35:00
3:55 PM,44.6,-13.0,9,30.19,10.0,NW,11.5,18.4,N/A,,Clear,310,2013-02-17 20:55:00
4:15 PM,44.6,-14.8,8,30.19,10.0,WNW,8.1,17.3,N/A,,Clear,290,2013-02-17 21:15:00
4:35 PM,42.8,-13.0,9,30.19,10.0,WNW,4.6,-,N/A,,Clear,290,2013-02-17 21:35:00
4:55 PM,42.8,-9.4,11,30.20,10.0,NW,8.1,-,N/A,,Clear,310,2013-02-17 21:55:00
5:15 PM,42.8,-7.6,12,30.20,10.0,WNW,4.6,-,N/A,,Clear,290,2013-02-17 22:15:00
5:35 PM,41.0,-5.8,14,30.20,10.0,WNW,5.8,-,N/A,,Clear,300,2013-02-17 22:35:00
5:55 PM,41.0,-4.0,15,30.21,10.0,NW,4.6,-,N/A,,Clear,310,2013-02-17 22:55:00
6:15 PM,39.2,-2.2,17,30.21,10.0,Calm,Calm,-,N/A,,Clear,0,2013-02-17 23:15:00
6:35 PM,39.2,-5.8,15,30.22,10.0,Calm,Calm,-,N/A,,Clear,0,2013-02-17 23:35:00
6:55 PM,39.2,-7.6,14,30.22,10.0,Calm,Calm,-,N/A,,Clear,0,2013-02-17 23:55:00
7:15 PM,37.4,-5.8,16,30.22,10.0,Calm,Calm,-,N/A,,Clear,0,2013-02-18 00:15:00
7:55 PM,37.4,-5.8,16,30.23,10.0,Calm,Calm,-,N/A,,Clear,0,2013-02-18 00:55:00
8:15 PM,35.6,3.2,26,30.24,10.0,SSW,4.6,-,N/A,,Clear,200,2013-02-18 01:15:00
8:35 PM,35.6,-2.2,20,30.24,10.0,Calm,Calm,-,N/A,,Clear,0,2013-02-18 01:35:00
8:55 PM,33.8,1.4,25,30.24,10.0,Calm,Calm,-,N/A,,Clear,0,2013-02-18 01:55:00
9:15 PM,32.0,3.2,30,30.25,10.0,Calm,Calm,-,N/A,,Clear,0,2013-02-18 02:15:00
9:35 PM,32.0,5.0,32,30.26,10.0,Calm,Calm,-,N/A,,Clear,0,2013-02-18 02:35:00
9:55 PM,32.0,3.2,30,30.26,10.0,Calm,Calm,-,N/A,,Clear,0,2013-02-18 02:55:00
10:15 PM,32.0,6.8,35,30.26,10.0,Calm,Calm,-,N/A,,Clear,0,2013-02-18 03:15:00
10:35 PM,30.2,8.6,40,30.26,10.0,Calm,Calm,-,N/A,,Clear,0,2013-02-18 03:35:00
10:55 PM,30.2,8.6,40,30.26,10.0,Calm,Calm,-,N/A,,Clear,0,2013-02-18 03:55:00
11:15 PM,30.2,10.4,44,30.26,10.0,Calm,Calm,-,N/A,,Clear,0,2013-02-18 04:15:00
11:35 PM,30.2,8.6,40,30.26,10.0,Calm,Calm,-,N/A,,Clear,0,2013-02-18 04:35:00
11:55 PM,30.2,8.6,40,30.26,10.0,Calm,Calm,-,N/A,,Clear,0,2013-02-18 04:55:00